sat.trackr.live / text

‹ back to catalog

STARLINK-32077

NORAD 60344 · 2024-136R

PAYLOAD ACTIVE UNKNOWN

§ Identity

Operator
Country
US
Launch date
2024-08-02
Launch site
AFETR
Launch vehicle
Mass (kg)
RCS (m²)

Purposes: comms

External: N2YO · Heavens-Above · Gunter

§ Orbital elements

Epoch: 2026-05-25T02:11:09.197952Z

Period
94.11 min
Inclination
53.1611°
Eccentricity
0.0001157
Mean motion
15.30196067 rev/d
Perigee alt
474.4 km
Apogee alt
476.0 km
Semi-major
6,853.4 km
B*
3.8571e-6
RAAN
80.6672°
Arg perigee
79.1041°
Mean anomaly
281.0090°
Rev number
10,136

§ Raw data

STARLINK-320771 60344U 24136R   26145.09107868 -.00000245  00000+0  38571-5 0  99902 60344  53.1611  80.6672 0001157  79.1041 281.0090 15.30196067101360

JSON: /api/v1/satellites/60344 · /tle

For live sub-satellite position, see the globe view (requires WebGL).

§ Visibility from observer

Set your observer location to see the next 7 days of passes ≥ 10°. The values pass through the URL so the page stays shareable.

No JS? Fill the form by hand. The geolocation button needs JavaScript.